Theta_e
341 341 341 341 341 341 341 341 340 340 340 340 339 339 339 339 338 337 335 334 334 334 335 334 335 335 335 334 333 333 334 334 334 334 334 333 333 333 333 331 331 332 333 332 329 327 330 333 333 331 330 329 329 327 326 327 328 326 324 324 327 326 325 326 325 324 325 326 325 324 324 323 322 322 321 321 321 322 323 324 325 326 327 328 327
342 341 340 341 341 341 341 341 341 341 341 340 340 340 340 339 339 338 337 337 336 335 335 335 335 334 334 334 334 335 335 335 334 335 334 334 334 334 335 334 333 334 333 332 332 328 327 331 333 332 331 330 329 328 326 327 327 327 325 325 326 326 326 326 325 324 324 325 325 325 325 324 323 323 322 322 321 322 323 324 324 326 327 327 327
341 340 340 340 340 340 341 341 341 341 340 340 340 340 340 339 340 339 339 339 338 338 337 336 336 335 334 333 334 335 335 336 335 335 334 334 334 333 335 335 335 335 335 333 332 331 328 328 332 333 332 331 330 329 327 327 327 328 327 326 326 327 326 326 325 324 325 326 326 325 325 325 325 324 323 322 322 322 323 323 324 325 326 326 326
339 339 340 341 341 341 341 341 340 340 340 341 340 340 339 339 339 339 340 340 339 340 339 339 338 337 336 335 334 334 334 335 335 334 335 335 334 334 335 336 336 336 336 335 333 332 330 327 328 332 333 332 330 329 328 328 327 328 328 326 326 327 326 325 324 324 325 326 326 325 325 325 325 324 324 323 323 323 323 323 322 323 324 325 325
339 339 340 341 341 341 340 340 341 340 340 340 340 340 340 339 339 339 338 338 338 338 339 339 339 338 337 336 336 336 336 335 335 335 335 334 335 334 334 334 336 336 336 336 335 333 332 329 327 329 332 333 331 330 329 328 328 328 328 327 327 327 327 326 324 324 325 325 326 325 325 325 325 325 324 324 324 324 323 322 321 321 323 324 323
339 340 340 340 340 341 341 340 340 340 340 340 340 340 339 340 340 339 339 337 337 337 338 338 338 338 337 337 337 337 337 337 336 336 335 334 334 334 334 334 335 336 336 336 336 334 333 332 329 328 330 332 332 331 330 329 329 328 328 328 327 327 327 326 325 323 324 325 325 325 325 326 326 325 325 324 324 323 323 321 320 322 323 323 323
339 340 341 341 341 341 341 340 340 340 340 340 340 340 340 340 340 339 339 338 338 337 337 338 338 338 337 337 337 337 337 337 337 336 336 335 335 334 335 335 335 335 335 335 336 336 335 334 332 329 328 330 332 331 330 330 329 328 329 329 328 327 327 326 326 324 323 324 325 325 325 326 326 325 325 324 323 323 323 320 320 322 323 323 323
339 339 341 341 340 340 341 341 341 340 341 341 340 340 341 341 340 340 340 340 339 339 338 339 338 338 338 338 338 338 338 337 338 337 337 337 336 336 336 335 336 336 336 336 336 336 336 335 334 332 329 328 330 331 331 330 329 329 329 329 329 328 327 326 326 324 323 324 325 325 325 326 326 325 325 325 323 323 324 321 320 321 321 322 323
339 339 341 341 340 340 340 341 341 341 342 342 341 341 341 341 341 340 340 339 338 338 339 339 338 338 338 339 339 339 339 339 338 338 337 337 337 338 337 336 337 337 337 337 336 336 336 335 335 334 332 329 328 330 330 330 330 330 329 330 329 329 329 327 326 325 324 324 325 325 325 325 326 326 325 325 324 324 325 323 321 322 322 323 323
339 339 341 340 339 340 340 339 339 339 340 341 340 340 340 340 341 340 339 338 337 337 338 338 338 338 338 338 338 338 338 339 339 338 338 338 338 338 338 338 337 337 338 337 337 337 337 336 335 335 334 332 329 328 329 330 330 330 330 330 330 329 329 328 327 326 325 325 325 326 326 325 325 326 325 325 324 324 325 325 323 322 323 323 323
338 338 338 338 338 338 338 338 337 337 338 338 338 339 339 339 339 339 339 337 337 337 337 337 338 338 338 339 339 339 339 338 338 338 338 338 338 339 338 338 338 338 338 338 338 338 337 336 335 336 335 334 331 328 328 329 329 330 330 330 330 330 330 330 328 327 326 326 326 326 326 325 324 326 326 325 324 325 325 325 324 323 323 324 324
337 337 337 337 337 337 336 336 337 337 337 337 337 337 337 337 337 337 337 337 337 337 337 337 337 338 339 339 340 339 339 339 339 339 338 338 337 338 338 337 337 337 337 337 337 338 338 337 336 336 335 335 334 331 328 327 328 328 329 330 330 330 331 331 329 328 327 326 326 326 326 326 325 324 326 325 325 325 325 325 324 323 323 323 324
336 336 336 336 336 336 336 336 337 337 337 337 336 336 336 336 335 335 335 336 336 337 338 338 337 337 338 338 338 337 338 338 339 339 339 338 337 337 337 336 336 335 335 335 336 337 337 337 337 336 335 335 334 333 331 329 328 328 326 327 330 331 331 331 331 330 328 326 325 326 326 326 325 324 324 326 325 325 325 325 324 323 323 323 323
334 335 335 335 334 335 335 335 335 335 335 335 334 334 334 334 335 335 335 335 335 336 337 337 336 335 336 335 334 334 333 335 339 340 340 339 338 336 336 336 336 335 334 333 334 334 334 336 337 336 335 335 335 334 334 333 332 330 327 325 327 331 331 330 331 331 330 327 325 325 326 325 325 324 323 325 325 325 326 325 324 324 323 322 321
332 332 332 332 332 332 332 332 332 331 332 332 331 332 331 332 332 333 334 334 334 334 335 335 335 334 334 334 333 332 331 332 336 338 337 336 336 336 337 337 336 335 334 333 333 334 334 334 335 335 336 336 336 335 335 334 334 332 330 326 323 327 331 331 330 331 331 329 326 326 326 324 324 324 323 324 325 325 326 326 325 324 322 321 320
329 329 329 329 329 330 330 330 329 329 329 329 329 329 329 329 329 330 332 332 332 333 333 334 334 333 333 333 332 332 331 331 332 334 333 332 334 335 336 335 335 335 334 334 334 334 333 334 334 334 335 336 336 336 335 334 334 333 332 330 324 323 329 332 331 331 331 330 328 328 326 324 324 324 322 323 325 326 326 326 325 324 322 321 320
325 325 325 325 326 326 327 327 327 327 327 327 327 327 327 328 327 328 329 330 330 330 331 332 332 332 332 332 333 332 332 332 333 332 330 330 331 331 332 333 334 334 334 334 333 333 332 333 333 333 334 335 335 335 335 335 334 333 332 332 329 323 325 330 332 331 331 330 330 329 328 325 323 324 323 322 323 326 326 326 326 324 322 321 321
322 322 322 322 322 323 324 324 325 325 324 325 325 325 325 325 325 326 326 327 327 328 329 330 330 331 331 332 333 332 332 332 332 331 329 329 330 330 330 330 331 332 332 332 332 331 332 332 333 333 333 334 335 335 335 334 334 334 333 332 332 328 324 326 330 331 331 331 330 330 330 327 324 323 323 322 322 325 326 326 326 324 322 321 321
320 320 320 320 321 321 321 322 322 322 322 322 323 322 322 323 322 323 323 324 324 325 326 328 328 329 330 330 331 331 331 331 331 330 330 330 329 329 329 328 329 330 330 331 331 331 332 332 333 333 333 334 335 334 334 334 334 334 333 332 333 332 329 325 326 330 332 331 330 330 330 329 326 324 323 322 322 324 326 326 326 324 323 322 322
319 319 319 319 319 319 319 319 319 319 319 320 320 320 320 320 320 321 322 322 322 323 324 325 325 326 326 327 327 328 329 329 330 329 329 329 328 328 328 328 329 329 329 329 330 331 331 331 332 333 333 334 334 334 334 334 335 334 333 332 332 333 333 328 324 325 329 330 331 330 329 330 329 326 323 322 322 324 325 326 326 325 323 323 322
317 317 317 317 317 317 317 317 317 317 317 317 318 318 318 318 318 319 319 319 320 320 320 321 322 323 323 323 324 325 326 328 328 328 329 328 328 328 328 328 328 328 329 328 329 329 329 331 332 331 332 332 333 333 334 334 334 334 333 332 332 332 332 331 327 324 325 328 330 331 329 329 330 329 325 322 321 323 325 326 326 325 324 323 321
316 316 316 316 315 315 316 316 315 316 316 316 316 316 316 317 317 317 317 317 317 317 318 318 319 319 320 320 321 322 323 325 326 326 326 327 327 327 328 328 328 328 328 328 328 329 329 330 330 331 331 332 332 333 333 334 334 334 333 333 333 332 331 331 330 327 325 326 329 331 330 329 329 330 328 323 321 323 324 325 326 325 325 323 322
315 315 315 315 315 314 314 314 314 314 315 315 315 315 315 315 315 315 315 315 314 314 316 316 316 317 318 318 319 320 321 322 323 323 323 324 324 325 326 326 326 327 327 327 327 328 328 328 328 330 331 332 332 332 333 333 333 334 334 333 333 333 332 332 331 330 327 326 327 329 330 330 329 330 329 326 323 323 324 325 326 325 325 324 322
314 314 314 313 313 313 313 313 313 313 314 314 313 313 314 314 313 313 313 312 312 313 314 314 314 315 315 316 317 318 318 319 320 320 321 321 322 322 323 324 323 324 324 325 326 326 327 327 327 329 331 331 332 332 332 332 333 334 333 333 333 333 332 332 331 330 329 327 327 328 329 330 329 329 329 327 325 323 324 325 326 325 326 325 322
313 313 312 312 312 311 312 311 311 312 312 313 313 313 313 313 311 311 311 310 311 311 312 312 312 313 313 314 314 315 316 317 317 317 318 318 319 320 321 320 321 322 322 322 324 325 325 325 326 328 329 330 330 331 332 332 332 333 333 333 333 333 332 331 331 330 329 328 327 328 328 329 330 330 329 329 327 324 323 325 325 325 326 325 322
312 311 312 311 310 310 310 310 310 310 311 311 312 312 312 312 311 311 311 311 311 311 311 311 311 311 312 312 312 313 314 315 314 315 315 315 316 317 318 318 318 319 319 320 321 322 323 324 325 326 327 329 328 329 329 331 331 332 333 333 333 332 332 331 330 330 329 328 327 328 328 328 329 329 329 329 328 326 324 324 325 325 325 324 322
311 310 310 310 309 308 308 309 309 309 310 310 311 311 311 311 311 310 311 311 311 311 310 311 311 311 311 311 311 312 313 312 312 312 313 314 314 314 315 315 316 316 316 317 319 319 321 321 322 323 325 327 327 327 327 328 328 330 332 332 332 332 332 331 330 330 329 329 327 327 328 328 328 328 329 329 328 327 325 324 325 326 325 323 322
309 309 308 308 308 308 307 307 308 308 308 308 309 310 310 310 309 309 310 310 310 310 310 310 310 310 310 310 310 311 311 310 310 311 311 312 312 312 312 313 314 315 314 314 316 317 317 318 320 320 322 322 324 325 325 326 326 327 329 331 331 332 332 332 331 330 330 329 328 327 327 328 328 328 328 328 328 328 326 324 325 326 325 323 322
308 308 308 307 308 307 307 306 306 307 308 307 307 308 308 308 308 307 308 309 309 309 309 309 308 309 309 310 310 310 309 309 309 309 309 310 310 310 310 311 312 312 312 312 312 313 314 315 317 317 318 319 320 320 322 325 326 324 327 330 331 331 332 332 332 331 330 329 329 327 327 328 328 328 328 327 328 328 327 325 324 325 326 323 322
308 307 307 307 307 307 306 306 306 306 306 307 306 306 306 306 306 306 306 306 307 307 308 307 307 308 308 308 309 308 308 307 307 308 308 308 308 308 308 308 309 310 311 311 310 311 312 312 313 314 314 315 316 317 319 322 324 324 327 330 330 329 330 331 332 332 332 331 329 327 327 327 328 328 328 328 327 328 328 326 325 325 326 323 322
308 307 307 306 306 306 306 306 305 305 305 306 305 305 305 305 305 305 305 305 306 306 306 306 306 307 307 307 307 306 306 306 306 306 306 306 306 306 306 307 307 308 308 308 308 308 309 310 310 311 312 312 313 314 316 318 322 325 326 328 330 329 328 329 331 332 332 332 330 328 327 327 327 327 328 328 327 327 328 327 326 325 325 324 322
307 307 307 306 306 306 305 305 305 305 305 305 305 305 305 305 304 304 304 304 305 305 305 305 306 306 306 306 305 305 305 305 305 305 305 305 305 305 305 305 306 306 306 306 307 306 307 308 308 309 310 311 311 312 314 316 319 323 325 327 331 331 329 329 330 331 331 331 331 330 329 327 327 327 328 328 327 327 327 327 326 325 325 324 322
306 306 306 306 305 305 304 304 304 304 304 304 304 304 305 304 304 304 304 304 304 305 305 305 305 305 305 305 304 304 304 304 304 304 304 304 303 303 303 304 304 304 305 305 305 305 305 306 306 307 308 309 310 311 312 314 316 320 323 326 330 332 330 328 329 330 331 331 331 331 330 328 327 327 327 328 327 327 327 327 327 325 324 324 322
306 306 306 306 305 305 304 303 303 303 303 303 304 304 304 304 304 304 304 304 304 304 304 304 304 304 304 304 304 303 303 302 303 303 302 302 301 301 301 302 302 302 303 303 304 304 304 304 305 306 306 307 309 310 311 312 313 317 321 324 328 330 330 328 328 329 330 331 331 331 330 328 327 326 327 328 328 327 327 327 327 325 324 324 321
306 306 305 305 305 304 304 303 303 302 302 302 302 303 303 303 304 304 303 304 304 304 304 303 303 303 303 303 303 302 302 302 302 301 300 300 299 300 300 300 300 301 301 301 302 303 303 303 304 305 305 306 307 308 310 311 312 314 318 322 325 329 331 329 327 328 331 331 330 330 330 329 327 326 326 327 327 328 327 326 326 326 325 324 322
305 305 305 305 304 304 304 303 302 301 301 301 301 301 301 302 303 304 304 303 304 304 303 303 303 303 303 302 302 301 301 301 300 299 299 299 299 299 299 299 299 299 299 300 301 301 302 303 303 304 305 305 306 307 309 310 312 314 316 319 323 326 329 330 328 327 329 331 329 329 329 328 327 326 326 327 327 328 327 326 326 326 325 325 322
305 305 305 305 304 303 303 302 301 301 300 299 299 299 300 300 302 304 304 303 304 304 303 303 303 302 302 301 301 300 300 300 299 298 298 298 298 298 298 298 298 299 299 299 299 300 301 302 303 303 304 305 306 306 308 309 310 312 314 317 320 323 326 330 329 326 327 330 330 329 329 328 327 327 326 326 326 327 328 327 327 326 325 326 323
304 304 304 304 304 303 303 302 301 300 299 298 297 298 299 300 302 304 304 304 304 303 303 302 302 302 301 300 300 300 299 299 298 298 297 297 297 297 297 298 298 298 298 298 299 299 300 300 301 302 303 304 305 306 306 308 309 311 313 315 318 320 322 328 330 327 325 328 330 329 329 328 327 327 327 326 326 327 327 326 326 326 325 326 323
304 304 304 304 304 303 302 301 300 299 298 297 296 296 298 299 301 304 303 303 303 303 302 302 301 301 300 300 300 299 298 298 297 297 297 297 296 296 297 297 297 297 297 298 298 298 299 299 300 301 302 303 304 304 306 306 308 310 312 314 316 316 317 321 327 328 326 326 327 328 328 328 327 327 327 327 326 327 327 326 326 326 325 326 324
304 304 304 304 303 303 302 301 300 299 297 295 295 296 297 298 301 303 303 303 303 302 302 301 301 300 300 299 299 298 298 297 297 296 297 296 296 296 296 296 296 296 297 297 298 298 299 299 300 300 301 302 302 303 304 305 306 308 309 311 312 313 315 317 321 325 327 326 327 328 328 327 327 327 327 327 327 327 327 326 326 326 325 325 325
303 304 304 304 303 302 302 301 300 298 296 294 294 295 296 296 299 302 303 302 302 301 301 301 300 299 299 298 298 298 297 297 297 296 296 295 295 295 295 295 295 296 296 297 297 298 298 299 299 300 300 301 301 302 303 304 305 306 307 308 310 311 313 315 317 320 324 326 326 327 329 328 327 327 327 327 327 327 327 326 325 326 326 325 325
303 303 303 303 303 302 301 301 300 298 295 293 294 295 296 296 298 301 302 301 301 301 300 300 299 299 298 298 298 298 297 297 297 296 296 295 295 295 295 295 295 296 296 297 297 298 298 298 298 299 299 300 300 301 302 302 303 304 305 307 308 308 310 312 313 315 319 324 326 326 328 328 328 327 326 326 328 327 325 325 324 325 326 325 325
303 303 303 303 303 302 301 300 299 297 294 292 294 296 296 297 298 300 301 301 301 300 300 299 299 298 298 298 297 297 297 297 297 296 295 294 294 294 295 295 296 296 296 297 297 297 297 298 298 298 299 299 300 300 301 302 302 303 304 305 305 306 306 309 311 312 315 321 325 326 327 327 327 326 326 326 327 326 324 324 323 325 326 325 325
303 303 303 303 303 302 301 299 298 296 293 292 293 295 296 297 298 299 300 301 300 300 299 299 298 298 298 297 297 297 297 297 296 295 294 294 294 294 295 296 296 296 296 296 296 297 297 298 298 298 298 299 299 299 299 300 301 301 302 302 302 303 305 307 310 311 313 316 319 324 327 327 325 324 324 325 326 325 324 323 323 324 326 325 324
302 302 302 303 302 302 302 299 297 296 293 291 292 295 296 297 298 299 300 300 300 299 299 299 298 298 297 297 297 296 296 296 295 294 293 294 294 295 296 296 296 296 296 296 296 296 297 297 297 297 297 297 297 297 297 298 299 299 299 300 301 302 304 305 307 309 311 311 312 317 324 326 324 323 323 323 324 324 323 322 322 323 326 326 324
302 302 302 302 302 302 302 300 298 295 292 291 292 294 296 297 298 299 300 300 299 299 299 298 298 298 297 297 296 296 296 296 294 293 293 293 294 295 296 296 296 296 296 296 296 296 296 296 296 296 295 295 296 296 296 296 297 298 299 299 300 301 302 303 304 305 307 308 308 311 318 323 323 322 322 322 322 322 322 322 321 321 324 326 325
301 301 301 301 301 301 302 301 299 296 292 291 292 293 295 296 297 298 299 299 299 299 298 298 298 298 297 296 296 295 295 295 294 292 292 293 293 295 296 295 295 295 295 296 295 295 295 294 294 295 295 295 294 295 295 295 296 297 298 298 299 300 301 302 303 304 305 307 308 310 315 320 323 322 321 322 322 321 321 321 320 320 321 325 326
300 300 301 300 300 300 301 301 300 297 294 292 291 292 294 296 298 298 298 299 299 299 298 298 297 297 297 296 296 295 295 295 294 293 293 293 293 295 295 295 295 295 295 295 294 294 294 294 294 294 294 294 294 294 294 295 295 296 297 298 299 300 301 302 303 305 306 308 310 313 317 321 323 322 321 322 322 321 320 319 319 319 319 322 325
300 300 300 300 299 299 299 300 300 299 296 293 291 292 292 294 297 299 298 298 299 298 298 298 297 297 297 296 295 294 294 294 293 293 293 293 293 295 295 295 295 295 295 295 294 294 294 294 294 294 294 294 294 294 294 295 296 297 297 299 299 300 302 304 305 306 307 309 312 316 319 322 323 322 321 322 321 321 320 319 318 318 318 320 323
300 300 300 300 300 299 298 298 299 299 298 294 292 291 292 292 295 298 298 297 298 298 298 297 297 297 296 296 295 294 294 293 293 293 293 293 293 295 295 294 294 294 294 294 294 295 295 295 295 294 294 294 294 294 294 295 295 296 297 299 300 301 303 304 305 306 308 310 313 317 320 322 323 323 322 322 322 321 320 319 318 318 318 319 321
299 299 299 299 299 300 299 298 297 298 299 296 293 291 292 291 293 296 297 296 296 298 298 297 297 297 296 296 296 295 294 293 293 293 293 293 293 294 295 294 294 294 294 294 294 295 295 295 295 295 294 294 294 294 294 294 294 295 297 298 299 300 302 304 305 307 309 311 314 318 321 323 323 323 322 321 322 321 320 320 319 318 317 317 318
Wind_Speed
1 1 1 2 2 2 2 2 2 2 2 3 4 4 4 4 5 5 7 7 7 7 7 8 8 9 10 10 11 11 11 11 12 12 13 12 12 15 16 15 14 14 13 13 14 13 13 13 12 10 13 17 15 14 11 9 9 9 8 8 6 6 6 5 5 5 5 5 4 4 3 2 3 4 5 4 5 7 8 8 7 6 6 6 6
1 1 1 1 1 1 1 1 1 2 2 3 3 4 4 5 5 6 7 7 7 7 7 8 9 10 10 10 10 11 11 12 13 12 13 13 13 13 15 16 17 16 15 14 15 16 15 14 14 13 14 15 14 13 11 10 11 10 10 8 7 7 7 6 6 6 6 6 5 4 4 4 3 4 5 5 6 7 8 9 8 6 6 7 6
1 1 1 1 1 0 1 1 1 1 2 3 3 3 4 5 5 6 7 8 9 8 8 9 10 11 11 11 10 10 12 11 11 13 14 14 14 14 16 17 17 17 16 17 17 17 17 17 16 14 15 15 14 14 15 13 13 12 11 10 9 9 8 7 7 7 7 7 5 5 5 5 4 5 5 6 7 7 7 8 8 7 6 7 6
1 1 1 1 1 1 1 1 1 2 2 3 3 4 4 5 5 6 6 7 8 8 9 9 10 11 11 11 11 12 14 12 13 15 15 15 14 15 15 14 16 18 19 19 18 18 19 19 18 16 16 17 16 15 16 15 14 14 13 12 11 10 10 9 9 9 9 8 7 6 6 6 5 5 6 6 7 7 7 7 8 8 7 7 6
1 1 1 1 1 1 1 2 2 2 3 4 4 4 4 5 5 5 6 6 8 8 9 9 10 11 11 11 11 12 13 13 14 15 15 15 15 16 15 15 16 16 17 18 17 18 19 20 20 19 18 18 17 16 16 16 16 15 15 14 12 12 11 10 10 10 11 10 8 8 7 7 6 6 7 7 7 7 7 6 7 9 9 7 7
1 1 1 1 1 2 2 2 3 3 4 4 5 5 5 5 5 6 6 6 8 8 9 10 10 11 11 11 11 12 12 13 15 14 15 15 15 17 16 16 16 13 15 16 17 18 18 20 21 22 21 19 19 18 17 17 18 17 17 16 14 13 13 12 11 11 12 11 9 9 9 8 7 7 7 7 7 8 7 7 9 11 10 9 9
1 1 2 2 2 2 2 2 3 4 4 5 5 5 5 5 6 6 7 7 8 9 9 10 10 11 11 11 12 12 13 14 14 14 15 15 15 16 14 15 16 14 14 15 16 17 18 18 21 23 23 22 21 21 19 19 20 18 18 18 16 15 14 13 12 12 12 12 11 11 11 10 9 8 8 8 8 9 8 8 11 12 11 11 11
2 2 3 3 3 3 3 3 4 4 4 5 6 5 5 6 6 7 8 8 9 9 10 10 11 11 11 11 12 12 13 14 14 14 15 15 15 15 15 15 16 15 15 14 15 17 17 17 19 21 24 24 23 23 23 22 21 19 19 19 18 16 16 15 15 14 14 13 12 12 12 11 11 10 10 9 9 10 9 9 11 12 12 12 12
3 3 4 4 4 3 4 4 5 5 5 5 5 5 6 6 7 7 7 8 9 10 10 10 11 12 12 12 12 12 13 14 14 15 15 15 15 15 15 15 15 15 15 15 15 16 17 16 17 19 22 24 25 26 26 23 21 20 20 20 20 18 17 17 16 15 16 15 14 13 13 13 12 12 11 11 10 10 10 10 11 12 12 12 12
4 4 4 4 4 4 4 5 6 6 6 5 5 5 5 6 7 8 8 9 11 11 11 11 12 12 13 13 13 13 14 14 14 14 15 15 15 14 14 14 14 14 14 14 15 15 16 16 17 18 20 23 26 28 28 24 22 22 21 22 22 21 18 18 18 17 17 17 16 15 15 14 14 13 13 13 11 11 12 12 12 12 12 13 13
5 5 5 5 5 5 5 6 6 6 7 6 5 5 5 6 7 8 9 11 11 12 11 11 12 13 14 15 15 15 15 14 14 14 14 14 14 14 14 14 13 13 14 14 14 15 16 17 18 18 19 22 25 28 30 28 25 24 24 24 24 22 20 20 19 18 18 18 18 17 16 16 16 15 14 14 13 13 13 13 12 12 13 13 12
7 7 7 7 6 6 7 7 7 7 8 7 7 7 7 8 8 9 10 11 11 11 11 11 13 14 14 15 15 15 15 14 14 13 13 13 13 14 14 13 12 12 13 13 14 14 15 16 17 19 19 19 22 25 29 30 28 27 26 25 25 24 23 22 21 19 20 20 19 19 18 18 17 16 15 15 15 15 15 14 13 13 13 13 12
8 8 9 9 9 9 9 9 9 9 9 9 9 10 9 10 10 10 10 11 11 10 9 11 12 12 12 13 14 15 14 14 13 13 12 12 13 13 13 13 12 12 13 13 14 15 15 15 16 20 20 20 21 22 26 29 30 30 30 28 26 26 25 24 23 22 21 21 21 21 20 20 19 17 17 17 16 16 16 16 15 15 14 13 13
9 9 10 10 11 11 11 11 11 11 11 11 11 11 11 12 12 13 12 12 11 10 9 10 11 11 12 12 12 11 11 10 11 11 10 11 12 13 13 13 13 14 14 14 15 15 16 16 16 18 19 20 20 20 22 26 28 30 32 32 29 28 27 27 26 24 23 23 23 22 21 21 21 19 19 18 17 17 17 17 17 16 15 14 14
10 9 10 10 11 11 11 11 11 12 11 11 12 12 12 13 14 14 15 14 12 11 11 10 12 14 12 9 8 8 8 7 6 8 11 13 13 13 13 13 14 15 15 15 15 15 15 15 16 17 17 18 18 18 20 23 25 27 30 34 34 32 29 28 29 27 25 24 24 24 23 23 23 21 21 20 19 19 18 19 18 17 17 16 15
10 10 10 10 11 10 10 10 10 11 10 10 11 12 12 13 14 14 14 15 14 14 14 13 13 13 10 7 8 7 6 6 7 9 13 13 12 12 13 14 15 15 15 16 16 16 16 15 16 17 18 17 17 19 21 22 23 23 26 30 34 35 33 30 30 30 28 26 25 25 25 25 24 23 22 22 21 20 20 20 19 18 18 17 17
12 12 11 11 11 10 10 9 9 10 10 10 11 12 12 12 13 13 14 14 15 16 16 15 15 13 11 8 7 5 5 9 12 12 13 13 12 13 14 14 14 14 15 16 17 17 17 16 17 17 18 18 18 19 21 22 23 23 24 27 30 34 36 34 31 32 31 28 26 26 26 26 26 25 23 23 24 22 21 22 21 19 19 18 17
11 11 10 10 10 10 10 9 9 10 10 10 10 11 11 11 12 12 13 13 14 15 14 15 15 14 13 10 8 8 9 12 11 8 11 15 15 15 15 15 15 15 16 16 17 18 18 18 18 18 18 19 20 21 23 25 27 27 25 25 27 30 36 37 35 32 31 30 28 28 27 27 27 28 25 25 26 25 23 23 23 21 20 19 18
10 10 10 10 9 9 10 9 8 9 8 8 9 10 10 11 11 11 11 12 12 13 13 14 15 14 14 15 15 15 14 13 10 8 10 13 14 16 16 16 15 15 16 17 17 18 18 19 19 19 18 19 21 24 25 24 25 28 29 28 27 27 31 36 39 36 32 33 32 29 28 28 28 28 27 27 27 26 25 25 24 23 22 20 19
10 9 9 9 8 8 9 8 8 8 8 8 8 9 10 10 10 10 11 12 12 11 12 13 13 14 16 17 17 18 18 17 15 13 10 9 12 14 15 16 16 16 17 17 18 18 19 19 20 19 19 20 21 24 25 23 23 27 30 30 29 29 29 32 38 40 37 35 33 30 30 29 28 28 28 28 29 28 27 26 26 25 23 21 21
10 9 8 8 8 8 8 9 9 8 8 8 9 9 9 10 10 10 11 12 11 11 12 12 12 13 14 15 16 16 18 18 18 17 13 10 10 10 13 16 17 18 18 17 18 19 19 19 19 20 20 21 22 23 23 24 25 27 29 31 32 33 32 31 34 38 40 37 32 31 32 31 29 29 29 29 31 30 29 28 27 27 24 22 22
9 8 9 9 9 9 9 9 9 9 9 9 9 9 9 9 10 10 10 10 10 11 11 11 12 13 13 14 14 14 15 15 16 18 16 14 11 11 15 16 15 17 18 18 19 19 19 20 21 21 22 22 22 23 24 24 26 27 27 29 32 34 34 34 34 36 39 39 35 33 32 33 32 31 30 31 31 32 31 29 29 29 26 23 22
8 8 9 9 9 10 9 9 10 10 10 9 9 9 9 9 9 9 10 10 10 10 10 11 12 12 12 13 13 13 13 13 15 17 15 13 12 11 15 18 18 18 20 20 22 22 21 22 22 22 22 22 22 24 26 26 26 28 28 28 30 34 35 35 35 35 37 39 39 37 35 35 35 33 32 32 31 33 33 31 30 30 28 25 23
8 8 9 9 9 10 11 10 10 11 11 10 10 10 9 9 9 9 9 10 11 11 10 11 12 12 12 12 12 13 14 14 15 17 16 16 15 11 14 19 17 18 23 23 23 22 22 22 22 21 20 21 23 23 26 26 24 26 29 29 31 34 35 36 35 35 37 39 40 40 39 38 36 35 34 33 32 33 34 33 32 32 30 27 25
8 8 9 10 10 11 11 11 11 11 11 9 9 10 9 9 9 9 9 9 10 11 10 11 12 12 12 12 12 13 13 14 15 16 16 17 16 12 15 19 16 17 23 24 23 22 22 22 21 20 20 21 21 21 23 25 24 24 26 28 31 34 34 35 35 34 35 38 40 41 42 40 38 36 36 35 33 34 36 35 34 33 31 29 27
8 9 9 10 11 11 11 11 11 11 11 10 9 10 9 8 9 10 8 8 10 10 10 10 11 11 12 12 12 12 12 13 14 15 15 16 16 15 15 17 16 17 20 22 23 22 21 22 22 23 23 22 24 25 25 24 22 23 25 27 29 32 34 34 35 35 35 37 40 42 42 42 42 38 37 37 36 35 36 36 35 35 34 31 30
9 9 9 10 11 11 12 12 11 11 11 11 10 10 10 9 9 10 9 9 10 10 10 10 11 11 12 12 12 11 12 13 14 14 14 14 15 17 15 12 13 13 13 17 21 21 22 24 25 25 24 25 28 28 29 31 27 21 22 25 25 27 32 34 35 36 37 37 40 43 43 43 44 41 38 38 38 37 36 37 37 36 36 34 33
9 10 10 10 10 10 11 11 11 11 11 12 11 10 10 9 10 11 10 10 10 10 10 11 11 12 12 13 13 11 12 13 14 14 15 14 14 16 16 13 11 9 9 12 14 18 24 25 25 26 24 26 28 29 30 33 32 28 24 23 24 25 29 32 34 37 38 39 40 44 45 43 43 44 41 39 40 39 38 38 38 37 38 37 35
9 9 9 10 9 9 10 11 11 11 11 12 12 11 11 10 11 12 12 11 10 10 11 12 12 12 12 13 13 12 13 14 14 14 15 15 15 15 16 16 14 11 9 10 10 14 22 24 24 27 28 27 28 30 30 30 32 32 25 22 24 25 27 30 32 35 38 41 42 44 46 45 43 44 43 41 41 42 41 40 40 39 40 39 36
8 8 8 9 9 9 10 10 11 12 12 12 12 12 12 11 11 12 13 12 11 11 11 12 12 13 13 13 13 12 14 14 14 15 15 15 15 16 16 16 16 14 12 11 10 15 23 25 24 27 30 31 30 30 30 29 31 31 25 23 25 25 26 28 30 33 36 41 43 44 44 45 45 44 45 44 42 42 42 42 42 42 42 41 38
7 7 7 8 9 9 10 10 11 12 12 12 12 12 12 12 12 12 13 13 12 12 12 12 12 13 14 14 14 14 15 15 14 15 16 16 16 17 17 17 17 18 17 15 11 15 22 25 26 29 30 32 32 31 31 30 28 26 26 26 26 25 25 28 32 34 37 41 43 43 44 47 48 47 47 47 45 43 43 44 44 44 44 43 40
7 7 7 8 9 9 10 11 11 12 12 12 12 12 12 13 13 12 13 13 13 12 13 13 13 13 14 14 14 15 15 15 16 16 16 17 17 18 18 18 18 18 20 19 14 16 24 26 27 30 30 31 32 31 30 29 27 25 26 26 25 25 24 26 33 35 36 40 42 42 46 49 50 49 48 48 47 45 44 45 46 46 46 44 42
7 7 7 8 8 9 11 12 12 12 13 13 13 13 12 13 12 12 13 14 13 13 13 13 13 13 13 14 14 15 15 16 16 17 17 18 19 19 19 19 19 19 20 21 18 17 24 27 26 28 30 31 30 28 29 30 29 27 26 26 24 24 25 26 31 35 35 38 40 42 46 50 50 49 49 49 49 48 46 45 46 48 48 46 44
8 7 7 8 8 10 11 12 13 13 14 13 13 13 13 13 12 12 13 13 13 13 13 13 14 13 13 14 15 15 16 17 17 17 17 19 20 20 20 19 20 20 20 22 22 20 23 28 28 28 29 29 29 29 29 30 31 29 28 28 24 24 27 28 29 32 33 34 38 42 46 50 50 50 50 49 49 49 48 46 47 49 49 47 46
8 8 8 8 9 10 11 12 13 14 14 14 14 13 13 13 12 12 13 13 12 13 13 13 14 14 14 14 15 16 17 17 17 17 18 19 20 20 21 20 21 22 22 22 23 23 25 28 29 28 28 29 29 30 29 28 30 30 29 29 27 26 27 28 27 28 31 33 35 39 44 49 51 50 50 49 48 49 49 47 47 49 51 49 47
8 8 8 9 9 10 11 12 14 14 15 15 14 14 14 13 12 12 12 12 12 12 12 13 13 14 14 15 16 17 18 18 18 18 19 20 21 20 21 22 22 23 23 22 23 25 26 27 28 28 28 29 29 29 30 29 29 29 28 28 29 28 27 26 24 24 27 30 32 36 42 48 51 50 49 49 49 48 49 49 49 50 51 51 49
8 8 8 9 10 11 12 13 14 15 15 16 16 15 15 14 12 11 12 13 12 12 12 12 13 14 15 15 16 18 18 18 19 20 21 22 23 22 23 24 24 24 24 24 24 25 26 28 29 29 29 29 29 28 28 29 29 29 28 28 29 31 28 24 22 22 23 28 32 34 38 45 50 49 48 49 50 49 49 50 51 51 52 53 52
8 9 9 9 10 11 12 13 14 15 15 17 18 17 16 15 13 11 12 13 12 12 13 13 13 14 15 16 16 17 18 19 20 22 23 24 24 25 26 26 25 25 25 25 25 25 26 28 28 29 29 28 29 29 28 27 28 29 29 28 28 30 29 23 22 23 23 26 32 34 36 43 48 47 46 48 49 50 50 50 51 52 53 54 54
9 9 9 9 10 11 11 12 14 15 16 18 19 19 17 15 14 12 12 12 12 12 13 13 13 14 15 16 16 17 18 19 22 23 24 25 26 27 28 27 26 26 26 25 25 25 25 26 27 28 28 27 28 29 29 29 28 27 26 26 26 30 32 27 23 22 21 24 29 33 35 39 43 43 43 45 48 50 51 51 52 53 54 55 55
9 9 9 9 10 10 11 12 13 15 17 19 21 20 19 17 14 12 12 12 12 12 13 13 13 15 16 16 16 17 18 19 22 24 23 25 27 29 28 28 27 27 26 25 25 25 25 25 26 27 28 27 27 28 29 28 26 25 24 25 26 28 30 29 27 23 22 24 26 31 35 36 39 42 42 44 47 50 51 52 54 55 55 55 56
9 9 9 9 10 11 11 12 14 16 18 21 20 19 19 19 15 12 11 12 12 12 13 13 13 15 16 16 17 18 18 20 23 23 24 27 28 29 29 29 28 27 27 26 26 26 25 25 26 27 27 26 26 27 28 27 26 27 28 28 27 27 27 28 29 26 24 25 27 30 34 37 39 41 43 45 47 49 51 53 55 56 56 56 56
9 9 9 9 10 11 12 13 14 15 19 22 19 15 16 17 15 11 11 12 12 12 13 13 14 15 16 17 18 18 19 22 24 24 27 30 30 29 28 28 28 28 28 27 26 26 26 25 26 26 26 26 26 27 28 29 30 29 29 28 26 27 28 26 26 27 25 25 27 30 34 37 39 40 43 46 48 50 52 54 56 58 57 56 56
9 9 9 10 10 11 12 14 14 15 19 22 18 14 14 15 14 11 10 11 11 11 13 13 13 16 17 17 19 20 21 24 25 25 28 31 30 30 28 28 28 28 27 27 27 27 27 26 26 27 26 27 29 29 29 30 31 30 28 27 27 27 26 21 19 24 25 23 24 28 32 35 39 42 45 47 48 51 54 55 57 58 57 57 57
9 9 10 9 9 10 11 14 15 14 19 22 18 13 13 13 13 11 10 10 11 11 12 13 14 16 17 18 19 21 23 24 24 26 30 31 30 30 29 29 29 28 27 28 28 29 28 26 27 27 27 29 30 29 29 30 31 31 30 29 28 27 27 22 18 22 26 26 26 27 28 30 35 41 43 46 48 50 53 55 57 59 59 58 58
10 10 10 9 9 9 10 12 14 15 18 21 19 14 12 12 13 12 10 10 11 12 12 13 15 16 16 18 20 21 23 24 24 27 30 31 30 29 29 29 30 30 30 29 28 28 28 27 27 27 28 29 30 30 30 31 33 33 31 30 28 26 27 27 24 27 32 32 31 29 23 23 30 36 39 42 45 47 51 54 57 60 61 60 59
10 10 10 10 9 9 8 10 12 14 18 21 21 16 13 12 13 12 11 10 10 12 13 13 14 15 16 18 20 22 23 22 25 30 32 32 30 28 28 30 31 32 31 29 27 27 27 27 27 29 31 31 32 33 33 33 34 33 31 31 31 30 31 32 33 36 39 39 34 27 21 20 26 31 33 36 39 42 47 51 55 60 63 63 62
9 9 10 10 9 8 8 8 10 13 18 20 21 19 15 13 13 13 11 10 11 12 13 14 15 15 16 17 19 21 21 21 26 32 35 34 31 28 29 31 31 31 30 28 28 28 28 28 29 32 34 35 36 37 37 36 36 35 35 37 38 37 36 36 36 36 37 37 32 23 19 20 23 27 30 33 34 38 43 47 51 57 62 65 66
9 9 9 9 10 9 8 7 8 11 16 19 20 20 18 15 14 15 13 11 12 12 12 14 15 14 15 16 17 19 19 21 27 32 34 34 30 28 30 32 31 31 30 28 28 28 28 29 31 33 35 36 38 38 38 37 36 37 39 39 37 35 31 28 28 29 29 30 28 23 21 21 22 26 29 30 31 34 38 42 48 54 59 64 66
8 9 9 9 9 10 9 8 7 8 12 18 19 20 20 18 16 15 14 13 13 13 13 14 15 14 14 14 15 19 21 24 29 31 32 32 29 28 30 32 32 33 32 31 29 28 29 31 32 32 33 35 36 36 35 33 31 32 34 32 29 26 22 17 17 22 25 25 24 23 22 21 20 24 25 26 29 32 34 37 44 51 56 62 65
8 8 8 8 8 8 9 10 9 7 9 15 19 19 18 19 18 16 15 15 14 14 14 14 15 15 15 14 16 21 25 28 30 31 31 30 27 26 29 32 31 32 35 35 31 28 29 31 31 31 32 32 33 34 32 30 28 28 28 28 26 23 19 15 14 19 23 25 25 23 21 19 19 21 22 20 23 29 34 36 40 47 54 59 63
8 7 7 7 7 7 7 8 10 9 8 12 19 19 16 18 20 17 15 15 15 14 14 15 15 16 16 16 18 24 29 29 30 31 30 27 24 24 27 30 28 31 40 41 36 34 34 34 36 36 34 33 33 33 32 30 28 26 25 27 27 26 22 19 18 16 15 18 22 20 19 19 18 20 20 13 10 18 30 36 38 45 53 57 60
Wind_Direction
298 299 292 297 311 318 323 319 308 310 308 303 306 310 302 289 283 282 276 271 268 262 257 258 257 254 254 256 259 261 265 271 271 270 269 265 260 265 270 271 269 270 268 261 257 249 232 231 241 250 263 269 275 278 264 235 234 252 252 229 221 237 237 229 231 229 225 234 222 210 216 182 158 145 146 163 170 172 170 166 170 172 163 156 146
300 308 298 282 289 291 312 299 296 307 300 304 308 300 294 288 286 287 285 285 288 283 275 272 272 267 262 261 259 259 259 263 269 269 271 269 262 262 263 264 268 268 267 264 259 254 243 231 234 243 251 264 277 275 261 241 235 237 243 242 231 227 231 226 228 229 232 239 223 212 212 199 186 158 143 144 151 159 164 168 173 168 166 166 153
305 320 320 303 298 326 347 317 317 319 308 308 306 296 290 288 289 293 294 297 300 296 288 284 283 282 280 278 279 280 271 264 272 275 275 272 268 267 262 262 268 268 267 268 263 255 247 236 231 237 242 248 255 258 258 249 237 233 236 242 236 225 224 225 225 225 235 240 223 213 208 198 193 174 153 140 146 154 160 170 171 163 167 169 155
360 356 347 331 347 348 341 347 338 325 317 313 308 301 294 291 290 292 291 292 295 291 287 287 286 287 287 287 288 287 281 278 277 274 275 276 275 273 268 267 268 266 267 266 264 258 250 242 234 233 238 240 241 246 253 246 237 236 234 235 236 228 222 225 224 220 228 234 222 214 208 199 195 181 163 150 151 155 159 169 172 167 165 166 158
33 3 343 340 339 340 345 341 330 328 317 312 309 300 296 297 296 293 292 295 294 289 287 286 286 288 288 289 288 285 285 287 283 280 283 284 282 279 278 278 272 268 270 262 259 260 254 248 240 233 233 236 239 243 247 244 238 237 234 231 233 229 224 223 223 218 219 225 220 215 212 203 197 189 173 164 162 159 160 166 167 165 163 163 159
36 342 343 344 333 335 344 341 326 325 316 312 312 303 302 304 304 302 300 302 296 292 291 288 288 289 289 291 291 290 289 288 286 286 287 284 283 283 282 283 280 279 277 264 259 261 256 252 245 238 233 231 234 238 242 242 237 235 234 231 229 228 225 221 219 218 215 217 219 216 216 205 197 196 184 175 173 167 163 159 154 155 159 161 155
21 340 341 332 337 338 337 342 330 324 317 313 312 310 310 308 309 310 305 304 299 296 293 290 290 289 290 291 288 289 287 285 285 285 286 284 283 282 278 277 276 276 272 265 267 265 256 253 248 243 238 232 231 233 238 241 236 233 233 231 229 225 224 221 217 216 214 213 215 218 218 206 198 200 192 183 178 172 167 159 153 153 157 159 154
13 347 338 331 337 335 333 339 329 323 318 314 313 311 313 313 314 313 308 307 303 299 295 293 293 289 288 287 284 284 282 281 282 281 284 284 282 281 279 278 275 275 274 269 272 270 261 256 250 246 243 238 232 230 234 236 231 230 232 231 230 225 222 222 218 214 213 212 212 216 219 210 201 201 199 191 182 176 172 163 156 156 159 160 157
23 2 345 341 344 337 335 335 328 323 317 314 314 314 317 319 317 315 310 305 301 298 297 298 296 292 287 284 282 281 279 280 280 280 281 280 279 279 278 278 276 275 275 272 271 270 267 262 255 248 245 243 238 233 234 233 229 229 231 230 229 227 223 222 221 216 213 214 212 211 217 215 206 202 203 200 189 182 178 171 166 163 163 164 162
29 19 2 350 350 349 340 333 329 321 314 313 312 314 321 318 314 311 303 297 296 296 298 300 299 296 291 288 285 281 279 279 279 278 278 278 279 280 279 278 276 274 272 272 271 268 264 264 263 254 245 245 242 238 237 234 229 229 230 229 229 227 224 221 221 220 216 216 213 209 214 216 212 206 206 205 196 190 185 179 177 172 170 168 167
33 27 17 2 358 358 349 342 337 326 320 322 320 321 324 319 312 306 300 296 296 297 299 299 299 298 294 291 286 281 278 276 276 276 276 278 279 280 280 278 276 275 273 272 271 269 265 264 263 252 243 246 246 241 238 236 233 230 229 230 230 228 227 222 221 220 218 219 216 211 211 214 215 210 209 208 200 198 194 186 181 179 178 174 172
39 33 27 17 10 4 358 352 344 337 335 338 341 339 334 329 322 313 309 307 304 304 306 305 302 298 292 288 284 279 275 269 267 269 272 276 278 277 277 278 278 276 275 273 271 271 269 265 259 250 242 242 246 243 239 239 237 233 230 230 231 230 228 225 223 219 215 218 218 213 210 213 218 215 213 211 203 202 199 192 186 182 182 180 176
37 31 28 21 15 11 9 6 2 358 356 356 355 352 345 340 332 321 317 314 314 317 319 311 305 303 301 297 292 283 274 263 258 264 270 272 276 276 274 278 280 278 279 278 273 270 266 261 255 253 248 243 247 247 243 242 241 238 234 230 230 231 229 227 225 219 214 215 217 215 210 211 217 217 216 213 206 206 201 194 189 184 185 185 179
30 26 23 18 13 9 10 10 9 8 6 4 3 1 358 356 350 339 331 323 317 320 325 317 311 314 313 306 302 296 287 267 249 254 269 272 275 276 274 277 279 280 283 281 275 270 267 263 257 256 253 246 246 246 242 241 241 241 237 232 229 229 229 229 227 222 216 214 213 214 212 213 217 217 219 215 208 208 203 196 192 187 188 187 182
32 28 26 21 16 10 9 9 9 9 7 3 0 1 1 360 357 348 340 332 323 324 330 326 321 319 313 304 309 312 303 287 247 247 267 273 272 273 274 277 279 285 289 286 280 274 270 265 261 259 256 250 244 243 243 240 240 241 240 236 231 228 227 228 229 225 219 215 211 211 213 215 216 218 219 216 211 208 203 199 195 190 190 188 184
39 38 35 30 26 18 10 7 8 8 6 1 356 358 358 355 352 347 342 336 328 327 329 327 325 324 317 308 310 303 297 321 324 296 287 283 275 273 274 275 279 286 289 286 283 280 275 268 262 260 258 253 246 245 245 244 243 241 241 240 234 228 225 225 228 226 221 218 212 209 212 213 213 217 218 214 213 209 203 201 196 192 192 188 185
46 42 39 34 30 23 15 7 3 2 359 354 351 350 349 347 346 342 338 333 324 320 319 321 325 322 315 312 310 303 308 328 325 309 304 302 292 285 280 277 279 283 284 283 283 281 279 275 268 263 258 251 246 246 244 244 243 239 239 243 239 232 226 224 226 226 222 219 217 214 212 213 212 214 216 213 211 209 205 203 198 193 193 190 186
45 37 33 29 24 19 14 5 357 356 350 344 344 343 342 343 343 340 335 332 326 319 314 319 323 319 317 318 311 300 303 314 315 307 308 306 299 296 294 290 285 282 281 281 282 283 282 280 277 272 263 252 247 246 244 246 244 238 234 236 239 238 230 225 225 226 223 218 219 218 213 214 215 214 215 214 211 209 205 204 201 195 192 190 187
40 33 28 24 16 11 8 0 353 353 349 346 350 350 348 347 347 345 341 339 335 324 318 324 326 322 327 331 323 312 307 306 304 304 308 304 301 301 297 295 291 288 287 285 283 283 283 282 280 276 268 257 252 249 248 249 244 238 235 231 234 240 236 229 226 226 225 218 217 218 214 214 215 215 215 215 212 209 207 206 202 198 193 189 190
39 33 27 24 20 16 14 11 6 2 1 2 2 358 356 355 354 353 349 347 345 335 326 329 330 326 329 332 328 321 315 308 303 302 302 300 301 301 299 300 299 296 292 289 288 285 281 280 278 276 271 265 260 255 251 247 242 240 240 234 230 234 237 234 229 226 227 224 218 216 216 213 213 214 215 215 213 209 208 206 202 201 197 191 192
42 38 33 32 31 28 26 22 16 9 7 9 6 4 5 4 3 0 356 353 351 347 338 334 333 331 331 330 327 324 321 317 315 318 318 311 306 306 308 307 303 298 295 293 292 289 285 282 278 275 271 268 264 259 254 248 244 243 241 235 230 231 234 236 233 228 228 228 222 218 217 213 211 212 214 216 214 210 209 206 202 202 201 196 194
44 41 39 39 36 33 29 22 18 13 12 13 11 11 11 11 12 8 5 1 355 352 346 342 340 338 338 334 330 330 329 325 326 331 331 324 316 315 316 313 308 307 307 303 299 296 292 287 282 277 272 270 265 260 257 251 247 246 243 238 235 235 236 237 237 233 229 227 223 219 217 216 213 210 213 215 213 210 209 207 204 203 202 200 197
49 44 41 39 34 30 26 23 22 18 15 17 15 14 12 15 18 13 11 10 4 359 355 353 350 346 345 340 334 334 332 327 329 331 329 323 320 318 316 316 315 314 312 310 307 301 293 288 284 279 273 270 267 261 259 255 248 246 245 241 238 239 239 238 237 235 232 228 224 220 219 219 217 211 211 214 211 208 209 208 206 204 203 201 199
53 47 40 35 32 29 27 27 25 20 20 22 19 18 18 22 22 17 15 14 9 6 3 360 357 353 349 345 341 338 333 332 333 330 327 324 321 314 314 318 317 313 313 313 310 303 295 291 288 283 278 274 270 265 261 258 251 248 248 243 237 239 241 240 238 237 234 230 226 223 220 220 218 214 211 212 211 208 208 209 207 205 203 201 200
54 49 39 34 35 32 31 30 26 23 23 25 24 22 24 28 26 21 20 17 12 9 6 2 0 357 352 348 346 341 337 337 336 332 331 329 324 318 318 320 317 312 313 312 310 307 302 299 297 298 298 294 291 285 275 266 255 250 252 247 239 238 241 241 240 239 237 233 228 224 221 221 220 217 212 211 211 208 207 209 208 206 203 199 199
56 49 41 39 41 37 35 34 30 29 27 26 28 26 26 30 26 22 21 17 13 10 7 4 2 359 356 351 348 345 342 342 340 335 334 332 329 326 323 320 316 314 311 310 310 308 305 304 308 311 310 312 318 316 309 300 282 263 256 251 243 240 242 242 240 240 239 235 230 226 223 222 222 218 213 211 211 208 208 210 209 206 202 198 197
59 52 46 45 45 42 40 37 33 32 31 30 31 29 27 30 27 22 19 16 13 10 7 4 1 359 358 353 348 348 348 346 342 338 335 332 328 326 327 322 317 316 313 311 310 305 305 310 312 311 311 316 324 327 324 322 319 303 278 261 248 241 243 244 241 240 240 237 233 228 224 223 222 220 216 215 213 209 208 211 210 207 203 199 198
64 57 53 50 48 45 43 40 37 36 35 34 34 32 29 30 29 25 20 15 13 12 9 6 3 1 359 356 351 351 354 350 344 341 337 333 330 328 327 323 318 318 315 314 311 305 307 313 311 309 313 317 319 324 323 320 319 320 308 283 264 251 246 247 245 242 240 239 235 230 225 223 222 220 217 217 215 211 209 210 211 209 205 202 200
68 62 58 54 51 49 47 43 39 38 38 37 35 34 32 32 30 25 20 13 11 14 11 8 6 2 0 358 354 355 357 352 346 343 339 334 334 332 327 323 319 317 313 312 312 307 308 312 311 309 312 315 315 317 319 316 313 315 313 293 279 269 255 248 248 246 243 241 237 231 226 222 222 221 219 217 215 214 211 208 210 210 206 204 202
72 66 61 58 53 50 49 45 42 39 38 37 34 33 33 31 28 25 19 15 15 17 12 9 8 4 2 360 359 360 357 352 348 345 341 339 337 333 328 325 320 316 313 310 307 305 307 310 310 309 311 314 314 313 311 309 309 310 305 291 286 285 272 257 250 248 247 244 238 233 229 223 222 221 219 217 215 215 214 209 208 210 207 205 205
74 70 64 62 56 52 50 46 44 41 38 36 32 32 31 28 26 22 17 15 16 16 13 12 9 6 4 3 4 4 357 353 351 347 344 343 340 335 330 327 322 317 315 310 304 305 307 308 308 308 309 311 312 311 307 304 304 305 303 294 288 289 283 266 254 249 247 245 239 235 232 226 222 221 218 217 216 215 215 210 207 208 207 206 206
75 72 66 64 59 54 52 47 44 41 37 34 31 29 29 26 24 18 14 14 15 14 12 12 11 8 5 5 6 4 359 355 352 349 347 345 341 337 332 329 325 322 319 313 306 305 306 306 306 307 308 309 310 309 308 306 303 301 300 293 284 282 282 268 257 253 249 245 240 237 234 228 222 220 218 217 216 215 214 211 208 206 206 208 208
78 75 69 66 61 56 53 47 44 40 35 32 28 25 24 22 20 16 13 13 13 13 11 10 11 8 4 5 6 4 0 357 353 350 348 346 343 338 335 332 327 325 323 317 310 307 306 307 307 307 308 309 307 307 309 308 306 302 298 293 283 275 279 275 263 257 252 248 243 238 236 230 222 220 218 216 216 215 214 213 211 208 207 208 208
78 76 70 67 63 59 55 48 43 39 34 29 24 21 19 15 15 14 11 11 12 12 10 10 10 8 6 5 4 4 1 357 355 353 350 347 344 339 336 334 328 324 323 318 312 308 307 308 308 307 308 308 306 306 308 307 306 305 300 296 286 273 278 283 272 257 250 248 246 241 236 231 224 221 219 217 216 215 215 215 213 209 207 208 208
77 74 71 69 65 60 55 49 43 37 32 27 21 18 14 10 10 11 10 10 11 10 10 11 10 7 7 6 4 4 1 358 357 355 351 347 343 338 335 332 327 323 321 318 313 308 306 306 307 307 308 307 306 305 306 305 305 305 302 299 293 282 280 285 281 261 246 246 249 244 239 232 225 222 220 218 216 216 216 216 214 210 208 208 209
77 75 73 69 66 60 55 49 42 35 30 24 19 15 11 8 7 9 10 10 11 12 11 10 10 8 7 6 6 4 0 359 357 353 350 346 342 338 334 329 325 321 318 316 312 308 306 304 305 306 307 306 305 305 307 306 305 304 302 301 299 294 285 281 282 271 253 251 255 251 242 233 225 220 219 219 217 217 216 215 213 211 209 209 210
76 74 72 68 65 61 55 49 41 34 28 22 16 12 9 6 5 8 11 11 12 14 10 10 11 9 8 7 5 4 1 358 356 352 348 345 341 337 332 329 325 320 318 314 311 308 306 304 305 306 307 307 305 306 308 308 308 308 306 303 301 300 292 278 276 280 268 258 258 257 248 236 226 221 219 220 218 217 216 214 213 212 210 210 210
75 72 70 67 65 62 57 49 41 33 27 20 14 9 7 6 6 9 11 10 14 15 10 11 12 10 9 8 5 5 3 357 354 350 346 343 340 335 331 327 324 321 318 314 312 310 307 305 306 307 308 309 308 308 309 309 309 309 307 305 305 305 302 286 273 279 278 265 259 257 249 235 226 222 220 220 218 217 216 214 213 213 211 210 210
73 72 72 69 66 62 57 49 40 32 25 19 13 10 9 6 5 8 11 11 14 14 10 11 13 11 9 7 5 4 1 356 352 347 343 341 336 332 330 326 324 322 318 316 315 312 309 307 306 307 308 309 309 308 309 309 308 306 307 311 312 313 312 303 287 282 283 276 264 257 250 237 226 222 222 221 220 218 217 214 212 212 210 210 210
70 70 72 72 69 63 57 49 40 32 25 19 15 15 13 8 2 4 11 12 10 13 12 10 11 11 8 5 3 0 356 352 349 345 343 341 335 330 328 326 324 322 319 318 316 313 310 307 306 307 307 308 309 308 308 311 310 308 310 311 309 309 310 308 302 295 290 285 269 254 249 240 228 223 221 221 222 220 218 216 212 211 211 210 210
71 71 72 72 71 64 57 49 39 33 26 19 18 20 16 11 6 3 9 12 9 11 12 9 8 8 6 3 359 355 352 350 349 347 343 340 335 329 327 326 325 322 319 317 316 313 311 309 307 307 306 306 307 307 308 308 308 307 308 306 303 304 306 305 303 299 293 285 270 253 246 239 230 225 221 221 223 222 219 216 212 211 211 211 211
73 74 74 73 72 64 56 48 40 34 26 19 20 27 23 18 11 1 3 10 10 11 10 7 7 5 1 360 356 353 352 350 349 347 342 338 334 330 328 327 324 320 317 316 316 314 313 310 308 307 305 303 303 303 302 302 303 303 303 304 305 306 309 306 301 299 296 286 270 255 248 241 232 226 224 223 223 222 218 214 211 210 210 210 211
76 76 75 74 72 66 58 49 43 36 26 19 21 29 29 26 18 4 2 9 11 12 9 5 5 3 359 358 356 354 353 351 349 348 344 340 336 334 334 333 329 323 319 318 316 314 311 308 307 306 303 301 301 300 299 298 299 300 300 303 304 304 304 302 298 298 299 295 277 257 247 241 232 224 223 224 224 222 218 214 211 209 209 210 210
78 76 73 73 72 69 64 53 45 37 26 21 23 28 28 28 23 11 5 10 10 8 7 5 4 3 360 357 357 356 354 353 353 352 348 343 340 339 338 337 335 330 325 321 316 311 308 306 306 304 301 300 300 299 298 297 298 299 299 298 297 296 295 291 289 290 291 299 297 274 250 237 228 220 220 223 223 221 219 215 211 208 209 209 209
80 76 72 72 70 69 69 59 49 39 27 21 23 26 25 25 25 18 9 10 10 8 6 5 4 4 2 358 358 357 355 356 357 354 349 344 341 341 341 339 337 332 328 325 320 316 313 310 307 303 301 301 299 298 296 295 296 296 296 294 291 290 289 286 287 288 287 294 302 291 267 239 223 217 219 222 221 220 220 217 211 208 208 208 208
83 79 73 71 68 67 71 67 55 40 28 23 24 27 26 24 26 25 16 9 10 9 7 5 5 6 4 359 357 357 356 358 359 356 351 346 342 342 343 341 338 334 332 330 327 324 319 314 308 304 303 301 299 297 296 294 292 290 289 290 289 287 286 285 284 285 284 284 287 287 278 253 225 216 221 224 220 219 220 218 213 209 207 207 207
86 82 76 71 68 66 66 69 63 43 28 24 26 27 26 22 22 23 16 6 7 9 7 6 4 5 4 360 356 357 358 357 357 356 354 349 345 344 344 342 339 337 335 333 330 325 319 315 310 306 305 304 301 299 298 294 291 289 288 287 285 284 284 284 282 279 279 279 275 268 268 260 232 217 224 227 222 220 221 219 216 212 208 205 205
89 85 81 74 68 64 61 62 66 48 28 21 24 27 25 21 19 18 14 8 5 7 8 5 2 5 9 6 1 1 359 353 351 353 353 351 347 345 345 344 341 338 336 333 330 325 320 317 314 312 310 310 308 305 303 300 296 295 296 291 285 282 280 279 279 277 276 278 271 256 255 256 231 215 223 227 221 219 218 216 215 214 209 204 202
94 89 86 81 72 66 60 51 55 54 29 17 19 23 23 24 21 14 11 10 3 2 7 3 359 6 11 9 11 13 4 352 348 350 351 350 348 347 348 346 344 341 338 334 332 330 328 322 318 317 317 317 316 312 310 308 303 301 300 292 284 282 277 271 276 277 275 277 272 256 250 250 229 214 219 223 220 218 215 212 212 212 209 204 201
98 93 89 89 80 72 66 53 47 53 30 12 13 16 17 21 23 13 7 10 3 358 3 0 357 3 2 357 6 12 5 354 350 350 350 348 344 344 348 347 344 342 340 336 332 330 329 327 325 323 322 323 323 321 318 316 312 307 300 292 289 288 279 269 272 276 275 275 271 258 248 246 232 216 214 216 217 216 213 210 209 208 206 203 200
100 96 89 88 82 75 74 62 49 50 38 12 10 13 12 17 21 15 6 7 3 354 354 356 355 356 354 349 351 357 357 353 351 350 348 345 340 339 345 345 339 339 341 339 335 332 331 332 333 330 327 328 330 329 327 324 321 316 305 298 298 295 287 278 274 275 275 274 270 257 240 239 234 219 210 205 210 215 211 207 206 205 204 202 199